Regional Weather Roundup
Issued by NWS

Home | Current Version | Previous Version | Text Only | Print | Product List | Glossary Off
Versions: 1 2 3 4 5 6 7 8 9 10 11 12 13 14 15 16 17 18 19 20 21 22 23 24 25 26 27 28 29 30 31 32 33 34 35 36 37 38 39 40 41 42 43 44 45 46 47 48 49 50

000
ASUS45 KBOU 281307
RWRCO

WEATHER ROUNDUP FOR COLORADO
NATIONAL WEATHER SERVICE DENVER/BOULDER CO
700 AM MDT THU AUG 28 2014

NOTE: "FAIR" INDICATES FEW OR NO CLOUDS BELOW 12000 FEET WITH NO
SIGNIFICANT WEATHER AND/OR OBSTRUCTIONS TO VISIBILITY.

COZ001>005-013-030-031-281400-
...NORTHWEST COLORADO...

CITY           SKY/WX    TMP DP  RH WIND       PRES   REMARKS
CRAIG          CLOUDY    52  50  93 SW3       30.28S
HAYDEN         CLOUDY    50  46  87 W6        30.29R
MEEKER         CLOUDY    52  49  89 W5        30.30R
MOUNT WERNER   NOT AVBL
STEAMBOAT SPGS CLOUDY    48  48  97 SW3       30.30R
WALDEN         CLOUDY    46  43  87 CALM      30.31S
$$

COZ006>008-011-281400-
...WEST CENTRAL VALLEYS...

CITY           SKY/WX    TMP DP  RH WIND       PRES   REMARKS
GRAND JUNCTION CLOUDY    57  55  93 SE5       30.24S
MONTROSE       CLOUDY    54  50  86 SE5       30.31R
EAGLE          CLOUDY    52  50  93 CALM      30.32R
RIFLE          CLOUDY    55  53  93 CALM      30.27R
DELTA          RAIN      57  53  85 CALM      30.27S
NUCLA          NOT AVBL
$$

COZ017>023-064>068-281400-
...SOUTHWEST COLORADO...

CITY           SKY/WX    TMP DP  RH WIND       PRES   REMARKS
DURANGO        PTCLDY    42  41  96 SE5       30.29S
CORTEZ         PTCLDY    45  44  97 E5        30.30R
PAGOSA SPRINGS PTCLDY    41  40  95 CALM      30.35R
TELLURIDE      CLOUDY    46  43  87 W5        30.43R
WOLF CREEK PAS PTCLDY    34  32  93 SW13      30.50S WCI  25
$$

COZ009-010-012-014-032>034-037-058>063-281400-
...CENTRAL COLORADO...

CITY           SKY/WX    TMP DP  RH WIND       PRES   REMARKS
ASPEN          CLOUDY    48  46  93 N5        30.34R
BUENA VISTA    MOCLDY    44  38  79 CALM      30.31R
COPPER MTN     SNOW      37  36  93 W20G25    30.48S VSB<1/4
BERTHOUD PASS  HVY SNOW  32  30  93 NW23      30.49S VSB<1/4 WCI  19
COTTONWOOD PAS MOCLDY    46  36  66 NW12G22   30.38S
GUNNISON       CLOUDY    48  43  81 N5        30.35R
KREMMLING      CLOUDY    50  45  81 CALM      30.32S
LEADVILLE      MOCLDY    39  38  96 N6        30.39R
MONARCH PASS   SNOW      34  34 100 W20       30.58R VSB<1/4 WCI  22
SALIDA         MOCLDY    55  41  60 SW7       30.36R
SUNLIGHT       LGT RAIN  41  41 100 CALM      30.48R VSB<1/4
WILKERSON PASS NOT AVBL
$$

COZ069>075-281400-
...SAN LUIS VALLEY/SANGRE DE CRISTO MOUNTAINS...

CITY           SKY/WX    TMP DP  RH WIND       PRES   REMARKS
ALAMOSA        CLOUDY    45  39  79 SW3       30.30S
LA VETA PASS   NOT AVBL
SAGUACHE       CLOUDY    46  43  87 N3        30.33R
$$

COZ035-036-038>040-281400-
...NORTHERN COLORADO FRONT RANGE...

CITY           SKY/WX    TMP DP  RH WIND       PRES   REMARKS
DENVER INTL AP PTCLDY    54  49  83 S13       30.14R
DMNS CITY PARK   N/A     54  47  76 S7G13     30.13S
AURORA         PTCLDY    52  49  91 S7        30.16R
FRONT RANGE AP NOT AVBL
ERIE MUNI ARPT PTCLDY    52  49  89 S3        30.11S
BOULDER MUN AP PTCLDY    54  46  76 CALM      30.11S
CENTENNIAL     PTCLDY    53  46  77 CALM      30.16R
BROOMFIELD     PTCLDY    54  46  76 SW3       30.14S
FORT COLLINS   PTCLDY    54  48  82 N5        30.13R
LONGMONT       PTCLDY    53  50  90 CALM      30.13S
$$

COZ041-046-047-076>085-087-088-281400-
...PIKES PEAK/PALMER DIVIDE AND SOUTHERN FOOTHILLS...

CITY           SKY/WX    TMP DP  RH WIND       PRES   REMARKS
COLO. SPRINGS  MOCLDY    54  48  80 W6        30.21R
A. F. ACADEMY  PTCLDY    46  43  88 N8        30.21R
ELLICOTT       PTCLDY    49  46  90 N5        30.18R
FALCON         PTCLDY    53  45  75 N5        30.23R
FORT CARSON    CLOUDY    55  47  74 VRB2      30.18R
LIMON          CLEAR     52  50  93 N3        30.14R
MONUMENT HILL  CLEAR     46  43  87 SW8       30.22R
TRINIDAD       CLEAR     50  41  71 W10       30.18S
$$

COZ042>045-048>051-090-091-281400-
...NORTHEAST COLORADO...

CITY           SKY/WX    TMP DP  RH WIND       PRES   REMARKS
GREELEY ARPT   CLEAR     50  43  76 CALM      30.12R
AKRON          CLEAR     55  52  89 W10       30.09R
BURLINGTON     MOCLDY    59  56  89 NW9       30.07R
WRAY             N/A    N/A N/A N/A W8        30.03S
STERLING       CLEAR     59  54  82 W6        30.06R
HOLYOKE        PTCLDY    61  59  94 W6        30.03R
FORT MORGAN    CLEAR     55  50  86 W6        30.10R
$$

COZ086-089-092>099-281400-
...SOUTHEAST COLORADO...

CITY           SKY/WX    TMP DP  RH WIND       PRES   REMARKS
PUEBLO         PTCLDY    55  49  80 CALM      30.13R
LA JUNTA       CLEAR     56  53  90 W9        30.09S
LAMAR          CLEAR     61  58  90 W8        30.04S
SPRINGFIELD      N/A     58  55  90 NW9       30.08R
$$



USA.gov is the U.S. government's official web portal to all federal, state and local government web resources and services.